Weather History for Telluride, CO

Change the Weather History Date:

Tuesday, February 18, 2014

  Actual Average Record
Temperature  
Mean Temperature 38 °F -  
Max Temperature 46 °F 32 °F 48 °F (2004)
Min Temperature 30 °F 14 °F 8 °F (2013)
Degree Days  
Heating Degree Days 27    
Moisture  
Dew Point 9 °F    
Average Humidity 33    
Maximum Humidity 48    
Minimum Humidity 15    
Precipitation  
Precipitation 0.00 in - - ()
Sea Level Pressure  
Sea Level Pressure 30.14 in    
Wind  
Wind Speed 4 mph (SSE)    
Max Wind Speed 12 mph    
Max Gust Speed -    
Visibility 10 miles    
Events      
Averages and records for this station are not official NWS values.
T = Trace of Precipitation, MM = Missing Value Source: NWS Daily Summary

Daily Weather History Graph

Daily Weather History Graph

Search for Another Location

Airport:

Trip Planner

Search our weather history database for the weather conditions in past years. The results will help you decide how hot, cold, wet, or windy it might be!

Date:

Astronomy

Feb. 18, 2014 Rise Set
Actual Time 6:57 AM MST 5:53 PM MST
Civil Twilight 6:31 AM MST 6:20 PM MST
Nautical Twilight 6:00 AM MST 6:51 PM MST
Astronomical Twilight 5:29 AM MST 7:21 PM MST
Moon 9:45 PM MST (2/18) 8:35 AM MST (2/18)
Length of Visible Light 11h 49m
Length of Day
10h 55m
Waning Gibbous, 87% of the Moon is Illuminated
Feb 18
Waning Gibbous
Feb 22
Last Quarter
Mar 1
New
Mar 8
First Quarter
Mar 16
Full

Hourly Weather History & Observations

Time (MST) Temp. Windchill Dew Point Humidity Pressure Visibility Wind Dir Wind Speed Gust Speed Precip Events Conditions
12:15 AM 35.6 °F - 6.8 °F 30% 30.13 in 10.0 mi Calm Calm - N/A   Clear
12:35 AM 37.4 °F - 5.0 °F 26% 30.12 in 10.0 mi Calm Calm - N/A   Clear
12:55 AM 35.6 °F - 5.0 °F 28% 30.12 in 10.0 mi Calm Calm - N/A   Clear
1:15 AM 37.4 °F - 5.0 °F 26% 30.12 in 10.0 mi Calm Calm - N/A   Clear
1:35 AM 33.8 °F 29.6 °F 5.0 °F 30% 30.12 in 10.0 mi East 4.6 mph - N/A   Clear
1:55 AM 33.8 °F 27.7 °F 6.8 °F 32% 30.12 in 10.0 mi ESE 6.9 mph - N/A   Clear
2:15 AM 32.0 °F 28.7 °F 8.6 °F 38% 30.12 in 10.0 mi ESE 3.5 mph - N/A   Clear
2:35 AM 32.0 °F 24.2 °F 8.6 °F 38% 30.10 in 10.0 mi ESE 9.2 mph - N/A   Clear
2:55 AM 32.0 °F - 8.6 °F 38% 30.11 in 10.0 mi Calm Calm - N/A   Clear
3:15 AM 32.0 °F - 8.6 °F 38% 30.11 in 10.0 mi Calm Calm - N/A   Clear
3:35 AM 32.0 °F 24.8 °F 8.6 °F 38% 30.10 in 10.0 mi SE 8.1 mph - N/A   Clear
3:55 AM 30.2 °F 23.4 °F 10.4 °F 44% 30.10 in 10.0 mi East 6.9 mph - N/A   Clear
4:15 AM 32.0 °F 27.5 °F 10.4 °F 41% 30.12 in 10.0 mi SE 4.6 mph - N/A   Clear
4:35 AM 32.0 °F 24.2 °F 10.4 °F 41% 30.12 in 10.0 mi SE 9.2 mph - N/A   Clear
4:55 AM 30.2 °F 21.9 °F 10.4 °F 44% 30.12 in 10.0 mi ESE 9.2 mph - N/A   Clear
5:15 AM 30.2 °F - 10.4 °F 44% 30.12 in 10.0 mi Calm Calm - N/A   Clear
5:35 AM 32.0 °F - 10.4 °F 41% 30.14 in 10.0 mi Calm Calm - N/A   Clear
5:55 AM 32.0 °F 28.7 °F 10.4 °F 41% 30.14 in 10.0 mi NNE 3.5 mph - N/A   Clear
6:15 AM 30.2 °F 21.9 °F 10.4 °F 44% 30.14 in 10.0 mi SE 9.2 mph - N/A   Clear
6:35 AM 30.2 °F 21.9 °F 10.4 °F 44% 30.15 in 10.0 mi ESE 9.2 mph - N/A   Clear
6:55 AM 30.2 °F 23.4 °F 10.4 °F 44% 30.16 in 10.0 mi ESE 6.9 mph - N/A   Clear
7:15 AM 30.2 °F 21.9 °F 10.4 °F 44% 30.16 in 10.0 mi ESE 9.2 mph - N/A   Clear
7:35 AM 30.2 °F 22.6 °F 10.4 °F 44% 30.17 in 10.0 mi SE 8.1 mph - N/A   Clear
7:55 AM 30.2 °F 23.4 °F 10.4 °F 44% 30.18 in 10.0 mi ESE 6.9 mph - N/A   Clear
8:15 AM 30.2 °F 23.4 °F 8.6 °F 40% 30.19 in 10.0 mi SE 6.9 mph - N/A   Clear
8:35 AM 32.0 °F 28.7 °F 8.6 °F 38% 30.19 in 10.0 mi SE 3.5 mph - N/A   Clear
8:55 AM 32.0 °F 25.6 °F 10.4 °F 41% 30.19 in 10.0 mi ESE 6.9 mph - N/A   Clear
9:15 AM 32.0 °F 27.5 °F 10.4 °F 41% 30.19 in 10.0 mi ESE 4.6 mph - N/A   Clear
9:35 AM 33.8 °F 29.6 °F 8.6 °F 35% 30.19 in 10.0 mi ESE 4.6 mph - N/A   Clear
9:55 AM 35.6 °F - 8.6 °F 33% 30.19 in 10.0 mi Calm Calm - N/A   Clear
10:15 AM 37.4 °F 34.9 °F 8.6 °F 30% 30.18 in 10.0 mi ESE 3.5 mph - N/A   Clear
10:35 AM 37.4 °F 34.9 °F 10.4 °F 33% 30.18 in 10.0 mi ESE 3.5 mph - N/A   Clear
10:55 AM 39.2 °F - 8.6 °F 28% 30.18 in 10.0 mi Calm Calm - N/A   Clear
11:15 AM 42.8 °F 40.1 °F 5.0 °F 21% 30.18 in 10.0 mi West 4.6 mph - N/A   Clear
11:35 AM 42.8 °F - 1.4 °F 18% 30.18 in 10.0 mi Calm Calm - N/A   Clear
11:55 AM 42.8 °F - -0.4 °F 16% 30.18 in 10.0 mi Calm Calm - N/A   Clear
12:15 PM 42.8 °F - -2.2 °F 15% 30.16 in 10.0 mi Calm Calm - N/A   Clear
12:35 PM 42.8 °F - 3.2 °F 19% 30.16 in 10.0 mi Calm Calm - N/A   Clear
12:55 PM 44.6 °F 40.2 °F 3.2 °F 18% 30.15 in 10.0 mi SW 8.1 mph - N/A   Clear
1:15 PM 44.6 °F 42.2 °F 3.2 °F 18% 30.15 in 10.0 mi WSW 4.6 mph - N/A   Clear
1:35 PM 44.6 °F 40.7 °F 1.4 °F 17% 30.14 in 10.0 mi West 6.9 mph - N/A   Clear
1:55 PM 44.6 °F 39.7 °F 3.2 °F 18% 30.14 in 10.0 mi West 9.2 mph - N/A   Clear
2:15 PM 46.4 °F 42.4 °F 3.2 °F 17% 30.13 in 10.0 mi WSW 8.1 mph - N/A   Clear
2:35 PM 44.6 °F 40.2 °F 3.2 °F 18% 30.13 in 10.0 mi WSW 8.1 mph - N/A   Clear
2:55 PM 44.6 °F 39.7 °F 1.4 °F 17% 30.13 in 10.0 mi West 9.2 mph - N/A   Clear
3:15 PM 46.4 °F 42.4 °F 5.0 °F 18% 30.12 in 10.0 mi WSW 8.1 mph - N/A   Clear
3:35 PM 44.6 °F 39.7 °F 6.8 °F 21% 30.12 in 10.0 mi West 9.2 mph - N/A   Clear
3:55 PM 44.6 °F 40.2 °F 5.0 °F 20% 30.12 in 10.0 mi West 8.1 mph - N/A   Clear
4:15 PM 44.6 °F 39.2 °F 6.8 °F 21% 30.12 in 10.0 mi West 10.4 mph - N/A   Clear
4:35 PM 44.6 °F 38.8 °F 6.8 °F 21% 30.12 in 10.0 mi West 11.5 mph - N/A   Clear
4:55 PM 42.8 °F 38.0 °F 8.6 °F 25% 30.13 in 10.0 mi West 8.1 mph - N/A   Clear
5:15 PM 42.8 °F 37.5 °F 12.2 °F 29% 30.12 in 10.0 mi West 9.2 mph - N/A   Clear
5:35 PM 41.0 °F 34.7 °F 12.2 °F 31% 30.13 in 10.0 mi West 10.4 mph - N/A   Clear
5:55 PM 41.0 °F 35.8 °F 12.2 °F 31% 30.14 in 10.0 mi West 8.1 mph - N/A   Clear
6:15 PM 41.0 °F 38.0 °F 12.2 °F 31% 30.14 in 10.0 mi SSW 4.6 mph - N/A   Clear
6:35 PM 41.0 °F 39.0 °F 8.6 °F 26% 30.14 in 10.0 mi SSW 3.5 mph - N/A   Scattered Clouds
6:55 PM 39.2 °F 37.0 °F 8.6 °F 28% 30.14 in 10.0 mi WSW 3.5 mph - N/A   Clear
7:15 PM 37.4 °F - 12.2 °F 36% 30.14 in 10.0 mi Calm Calm - N/A   Clear
7:35 PM 37.4 °F 32.8 °F 14.0 °F 38% 30.14 in 10.0 mi ESE 5.8 mph - N/A   Scattered Clouds
7:55 PM 35.6 °F 29.2 °F 15.8 °F 44% 30.14 in 10.0 mi ESE 8.1 mph - N/A   Scattered Clouds
8:35 PM 35.6 °F 30.7 °F 17.6 °F 48% 30.14 in 10.0 mi ESE 5.8 mph - N/A   Scattered Clouds
8:55 PM 35.6 °F 32.8 °F 17.6 °F 48% 30.14 in 10.0 mi SE 3.5 mph - N/A   Scattered Clouds
9:15 PM 37.4 °F - 12.2 °F 36% 30.12 in 10.0 mi Calm Calm - N/A   Scattered Clouds
9:35 PM 35.6 °F 29.9 °F 14.0 °F 41% 30.12 in 10.0 mi ESE 6.9 mph - N/A   Overcast
9:55 PM 35.6 °F 30.7 °F 12.2 °F 38% 30.12 in 10.0 mi SE 5.8 mph - N/A   Overcast
10:15 PM 35.6 °F - 15.8 °F 44% 30.12 in 10.0 mi Calm Calm - N/A   Overcast
10:55 PM 35.6 °F 31.7 °F 14.0 °F 41% 30.12 in 10.0 mi SE 4.6 mph - N/A   Overcast
11:15 PM 33.8 °F - 15.8 °F 48% 30.11 in 10.0 mi Calm Calm - N/A   Overcast
11:35 PM 33.8 °F 28.6 °F 14.0 °F 44% 30.10 in 10.0 mi East 5.8 mph - N/A   Overcast
11:55 PM 33.8 °F 29.6 °F 14.0 °F 44% 30.10 in 10.0 mi ESE 4.6 mph - N/A   Mostly Cloudy